GW3951 Weather Reports


Display with metric or nautical units.
time (UTC)temp
F
wind
direction
speed
MPH
gust
MPH
rain 1hr
in
rain 24hr
in
rain mn
in
humidity
%
barometer
mb
20260505173008 78 135 6.0 12.0 0.00 0.00 0.00 50 1017.4
20260505171517 78 138 4.0 10.0 0.00 0.00 0.00 50 1017.5
20260505170020 76 227 4.0 10.0 0.00 0.00 0.00 52 1017.8
20260505164522 77 215 4.0 10.0 0.00 0.00 0.00 50 1018.0
20260505163029 77 238 2.0 6.0 0.00 0.00 0.00 54 1018.3
20260505161514 76 176 4.0 11.0 0.00 0.00 0.00 54 1018.4
20260505153024 75 152 5.0 11.0 0.00 0.00 0.00 58 1018.5
20260505151526 75 138 7.0 11.0 0.00 0.00 0.00 58 1018.3
20260505124514 63 146 0.0 2.0 0.00 0.00 0.00 83 1018.1
20260505123012 61 77 0.0 0.0 0.00 0.00 0.00 85 1018.3
20260505121506 58 352 0.0 0.0 0.00 0.00 0.00 88 1018.1
20260505120010 56 352 0.0 0.0 0.00 0.00 0.00 89 1018.2
20260505114512 53 103 0.0 0.0 0.00 0.00 0.00 92 1018.2
20260505113015 51 103 0.0 2.0 0.00 0.00 0.00 93 1018.0
20260505111513 49 103 0.0 2.0 0.00 0.00 0.00 94 1018.0
20260505101513 0 0.0 0.0 0.00 0.00 0.00 1017.3
20260505100015 0 0.0 0.0 0.00 0.00 0.00 1017.2
20260505094518 0 0.0 0.0 0.00 0.00 0.00 1017.0
20260505093016 0 0.0 0.0 0.00 0.00 0.00 1016.8
20260505091516 49 151 0.0 0.0 0.00 0.00 0.00 1016.8
20260505090018 50 151 0.0 0.0 0.00 0.00 0.00 94 1016.8
20260505084533 49 151 0.0 0.0 0.00 0.00 0.00 93 1016.7
20260505083019 50 151 0.0 0.0 0.00 0.00 0.00 93 1016.5
20260505081519 50 151 0.0 0.0 0.00 0.00 0.00 93 1016.4
20260505080019 50 151 0.0 0.0 0.00 0.00 0.00 93 1016.3
20260505074521 50 151 0.0 0.0 0.00 0.00 0.00 93 1016.2
20260505073016 50 151 0.0 0.0 0.00 0.00 0.00 93 1016.3
20260505071520 50 151 0.0 0.0 0.00 0.00 0.00 93 1016.3
20260505070028 50 151 0.0 0.0 0.00 0.00 0.00 92 1016.2
20260505064520 51 151 0.0 0.0 0.00 0.00 0.00 92 1016.4
20260505063028 51 151 0.0 0.0 0.00 0.00 0.00 92 1016.6
20260505061520 51 151 0.0 0.0 0.00 0.00 0.00 92 1016.8
20260505060004 52 151 0.0 0.0 0.00 0.00 0.00 92 1017.1
20260505054507 52 151 0.0 0.0 0.00 0.00 0.00 92 1017.3
20260505053018 52 151 0.0 0.0 0.00 0.00 0.00 92 1017.3
20260505051518 52 151 0.0 0.0 0.00 0.00 0.00 90 1017.5
20260505041515 54 151 0.0 0.0 0.00 0.00 0.00 87 1017.7
20260505040020 54 151 0.0 0.0 0.00 0.00 0.00 86 1017.7
20260505034525 55 151 0.0 0.0 0.00 0.00 0.00 85 1017.7
20260505033006 56 151 0.0 0.0 0.00 0.00 0.00 84 1017.7
20260505031515 56 151 0.0 0.0 0.00 0.00 0.00 82 1017.7
20260505030016 57 151 0.0 0.0 0.00 0.00 0.00 81 1017.7
20260505024520 58 151 0.0 0.0 0.00 0.00 0.00 79 1017.7
20260505023024 59 151 0.0 0.0 0.00 0.00 0.00 76 1017.5
20260505021508 59 151 0.0 0.0 0.00 0.00 0.00 73 1017.4
20260505020014 60 151 0.0 0.0 0.00 0.00 0.00 72 1017.5
20260505014519 61 151 0.0 0.0 0.00 0.00 0.00 69 1017.5
20260505013024 62 152 0.0 0.0 0.00 0.00 0.00 67 1017.4
20260505011504 62 188 0.0 0.0 0.00 0.00 0.00 65 1017.3
20260505010015 63 159 0.0 2.0 0.00 0.00 0.00 65 1017.0
20260505004528 64 210 0.0 2.0 0.00 0.00 0.00 61 1016.9
20260505003021 65 202 0.0 2.0 0.00 0.00 0.00 60 1016.8
20260505001524 66 175 1.0 4.0 0.00 0.00 0.00 57 1016.8
20260505000008 67 146 1.0 8.0 0.00 0.00 0.00 56 1016.8
20260504234529 68 220 1.0 8.0 0.00 0.00 0.00 54 1016.7
20260504233018 69 169 4.0 8.0 0.00 0.00 0.00 53 1016.5
20260504231523 70 183 3.0 13.0 0.00 0.00 0.00 54 1016.5
20260504230026 71 145 4.0 9.0 0.00 0.00 0.00 53 1016.4
20260504224513 72 180 7.0 13.0 0.00 0.00 0.00 52 1016.4
20260504223022 72 189 7.0 17.0 0.00 0.00 0.00 50 1016.4
20260504221522 73 214 5.0 15.0 0.00 0.00 0.00 49 1016.3
20260504220024 73 221 7.0 21.0 0.00 0.00 0.00 46 1016.4
20260504214528 73 140 9.0 19.0 0.00 0.00 0.00 46 1016.2
20260504213014 74 157 7.0 14.0 0.00 0.00 0.00 44 1016.3
20260504211520 74 168 9.0 16.0 0.00 0.00 0.00 43 1016.2
20260504210022 75 243 8.0 19.0 0.00 0.00 0.00 43 1016.2
20260504204527 76 213 6.0 13.0 0.00 0.00 0.00 42 1016.0
20260504203028 77 171 7.0 16.0 0.00 0.00 0.00 42 1016.3
20260504201517 77 159 4.0 18.0 0.00 0.00 0.00 41 1016.2
20260504200004 78 175 7.0 14.0 0.00 0.00 0.00 39 1016.4
20260504194506 78 139 3.0 15.0 0.00 0.00 0.00 37 1016.3
20260504193007 79 198 2.0 6.0 0.00 0.00 0.00 35 1016.5
20260504191518 78 349 5.0 9.0 0.00 0.00 0.00 35 1016.7
20260504190027 79 205 5.0 13.0 0.00 0.00 0.00 37 1016.8
20260504184505 79 223 4.0 7.0 0.00 0.00 0.00 35 1017.0
20260504183007 78 294 3.0 7.0 0.00 0.00 0.00 36 1017.3
20260504181513 77 252 2.0 7.0 0.00 0.00 0.00 35 1017.3
20260504180018 77 194 4.0 9.0 0.00 0.00 0.00 35 1017.4
20260504174520 77 236 2.0 5.0 0.00 0.00 0.00 37 1017.5